User: anonymous   Login
Location: Myra
(43.4160°N, 88.0960°W)
Time: 00:08:08
(UTC-06:00)
Language:

SL-8 R/B - Orbit

View from above orbital plane
View from above orbital plane
View from above satellite
View from above satellite

Ground track
Ground track

The orbit data is extracted from the following two-line orbital elements,

1 33066U 08031G   17051.88622284 -.00000102  00000-0  15791-4 0  9995
2 33066  48.4438 294.3843 0007971 342.1094 105.6494 14.69513442465655
Epoch (UTC): 20 February 2017 21:16:09
Eccentricity: 0.0007971
inclination: 48.4438°
perigee height: 657 km
apogee height: 668 km
right ascension of ascending node: 294.3843°
argument of perigee: 342.1094°
revolutions per day: 14.69513442
mean anomaly at epoch: 105.6494°
orbit number at epoch: 46565

The dashed part of the orbit path shows where the satellite is in the earth's shadow,  

DLR